| time (UTC) | temp F | wind direction | speed knots | gust knots | rain 1hr in | rain 24hr in | rain mn in | humidity % | barometer mb |
| 20260510225232 | 71 | 280 | 0.9 | 4.3 | 0.00 | 0.00 | 0.00 | 52 | 1016.3 |
| 20260510224958 | 71 | 268 | 1.7 | 6.1 | 0.00 | 0.00 | 0.00 | 52 | 1016.3 |
| 20260510224841 | 71 | 211 | 2.6 | 7.0 | 0.00 | 0.00 | 0.00 | 53 | 1016.4 |
| 20260510224517 | 71 | 268 | 0.9 | 6.1 | 0.00 | 0.00 | 0.00 | 53 | 1015.1 |
| 20260510223951 | 71 | 223 | 2.6 | 7.0 | 0.00 | 0.00 | 0.00 | 53 | 1016.4 |
| 20260510223221 | 71 | 215 | 2.6 | 10.4 | 0.00 | 0.00 | 0.00 | 54 | 1016.5 |
| 20260510223055 | 71 | 209 | 1.7 | 9.6 | 0.00 | 0.00 | 0.00 | 53 | 1015.2 |
| 20260510222712 | 71 | 213 | 1.7 | 7.8 | 0.00 | 0.00 | 0.00 | 53 | 1016.6 |
| 20260510222206 | 71 | 213 | 1.7 | 5.2 | 0.00 | 0.00 | 0.00 | 54 | 1016.5 |
| 20260510221657 | 70 | 216 | 1.7 | 7.8 | 0.00 | 0.00 | 0.00 | 55 | 1016.5 |
| 20260510221537 | 70 | 182 | 0.9 | 7.8 | 0.00 | 0.00 | 0.00 | 54 | 1015.1 |
| 20260510221148 | 70 | 296 | 1.7 | 7.8 | 0.00 | 0.00 | 0.00 | 55 | 1016.3 |
| 20260510220641 | 70 | 234 | 1.7 | 7.8 | 0.00 | 0.00 | 0.00 | 55 | 1016.3 |
| 20260510220134 | 70 | 321 | 3.5 | 7.8 | 0.00 | 0.00 | 0.00 | 54 | 1016.1 |
| 20260510220021 | 70 | 211 | 0.9 | 7.8 | 0.00 | 0.00 | 0.00 | 55 | 1014.9 |
| 20260510215626 | 71 | 221 | 4.3 | 9.6 | 0.00 | 0.00 | 0.00 | 54 | 1016.1 |
| 20260510215123 | 71 | 213 | 4.3 | 9.6 | 0.00 | 0.00 | 0.00 | 54 | 1016.2 |
| 20260510214846 | 71 | 231 | 4.3 | 9.6 | 0.00 | 0.00 | 0.00 | 54 | 1016.1 |
| 20260510214556 | 71 | 243 | 4.3 | 8.7 | 0.00 | 0.00 | 0.00 | 54 | 1014.8 |
| 20260510214105 | 71 | 236 | 3.5 | 9.6 | 0.00 | 0.00 | 0.00 | 54 | 1016.2 |
| 20260510213556 | 72 | 258 | 2.6 | 9.6 | 0.00 | 0.00 | 0.00 | 54 | 1016.3 |
| 20260510213057 | 71 | 325 | 2.6 | 9.6 | 0.00 | 0.00 | 0.00 | 54 | 1016.3 |
| 20260510213038 | 71 | 325 | 3.5 | 9.6 | 0.00 | 0.00 | 0.00 | 54 | 1015.0 |
| 20260510212547 | 71 | 169 | 1.7 | 4.3 | 0.00 | 0.00 | 0.00 | 55 | 1016.3 |
| 20260510212038 | 70 | 311 | 0.9 | 3.5 | 0.00 | 0.00 | 0.00 | 61 | 1016.2 |
| 20260510211755 | 69 | 82 | 1.7 | 2.6 | 0.00 | 0.00 | 0.00 | 62 | 1016.2 |
| 20260510211603 | 69 | 133 | 0.9 | 2.6 | 0.00 | 0.00 | 0.00 | 62 | 1014.9 |
| 20260510211014 | 69 | 146 | 1.7 | 3.5 | 0.00 | 0.00 | 0.00 | 63 | 1016.4 |
| 20260510210503 | 68 | 185 | 0.9 | 4.3 | 0.00 | 0.00 | 0.00 | 65 | 1016.2 |
| 20260510210032 | 67 | 33 | 0.0 | 4.3 | 0.00 | 0.00 | 0.00 | 66 | 1014.9 |
| 20260510205953 | 67 | 342 | 1.7 | 4.3 | 0.00 | 0.00 | 0.00 | 66 | 1016.2 |
| 20260510205444 | 67 | 315 | 1.7 | 4.3 | 0.00 | 0.00 | 0.00 | 63 | 1016.3 |
| 20260510204934 | 67 | 331 | 0.9 | 7.8 | 0.00 | 0.00 | 0.00 | 63 | 1016.3 |
| 20260510204651 | 68 | 339 | 1.7 | 7.8 | 0.00 | 0.00 | 0.00 | 62 | 1016.3 |
| 20260510204606 | 68 | 339 | 0.9 | 4.3 | 0.00 | 0.00 | 0.00 | 62 | 1015.0 |
| 20260510203920 | 68 | 329 | 3.5 | 7.8 | 0.00 | 0.00 | 0.00 | 61 | 1016.3 |
| 20260510203421 | 69 | 329 | 3.5 | 8.7 | 0.00 | 0.00 | 0.00 | 58 | 1016.2 |
| 20260510203054 | 70 | 325 | 5.2 | 8.7 | 0.00 | 0.00 | 0.00 | 55 | 1015.0 |
| 20260510202911 | 70 | 323 | 1.7 | 7.8 | 0.00 | 0.00 | 0.00 | 55 | 1016.3 |
| 20260510202402 | 71 | 318 | 1.7 | 4.3 | 0.00 | 0.00 | 0.00 | 53 | 1016.4 |
| 20260510201851 | 72 | 252 | 1.7 | 7.0 | 0.00 | 0.00 | 0.00 | 51 | 1016.2 |
| 20260510201519 | 72 | 241 | 3.5 | 7.0 | 0.00 | 0.00 | 0.00 | 49 | 1014.8 |
| 20260510201337 | 72 | 234 | 1.7 | 5.2 | 0.00 | 0.00 | 0.00 | 51 | 1016.2 |
| 20260510200828 | 73 | 298 | 2.6 | 5.2 | 0.00 | 0.00 | 0.00 | 50 | 1016.1 |
| 20260510200318 | 73 | 236 | 2.6 | 6.1 | 0.00 | 0.00 | 0.00 | 49 | 1016.1 |
| 20260510200051 | 73 | 259 | 1.7 | 6.1 | 0.00 | 0.00 | 0.00 | 47 | 1014.8 |
| 20260510195808 | 73 | 217 | 2.6 | 7.8 | 0.00 | 0.00 | 0.00 | 47 | 1016.1 |
| 20260510195257 | 74 | 202 | 3.5 | 10.4 | 0.00 | 0.00 | 0.00 | 47 | 1016.1 |
| 20260510194747 | 74 | 202 | 3.5 | 10.4 | 0.00 | 0.00 | 0.00 | 47 | 1016.0 |
| 20260510194538 | 74 | 252 | 5.2 | 10.4 | 0.00 | 0.00 | 0.00 | 47 | 1014.8 |
| 20260510194244 | 75 | 217 | 2.6 | 8.7 | 0.00 | 0.00 | 0.00 | 48 | 1016.0 |
| 20260510193735 | 75 | 111 | 2.6 | 9.6 | 0.00 | 0.00 | 0.00 | 50 | 1016.1 |
| 20260510193224 | 74 | 201 | 3.5 | 10.4 | 0.00 | 0.00 | 0.00 | 52 | 1016.1 |
| 20260510193107 | 74 | 245 | 0.9 | 10.4 | 0.00 | 0.00 | 0.00 | 48 | 1014.8 |
| 20260510192945 | 74 | 247 | 3.5 | 10.4 | 0.00 | 0.00 | 0.00 | 51 | 1016.1 |
| 20260510192204 | 74 | 226 | 3.5 | 10.4 | 0.00 | 0.00 | 0.00 | 49 | 1016.1 |
| 20260510191654 | 73 | 277 | 6.1 | 13.0 | 0.00 | 0.00 | 0.00 | 50 | 1016.2 |
| 20260510191532 | 73 | 196 | 5.2 | 13.0 | 0.00 | 0.00 | 0.00 | 48 | 1015.0 |
| 20260510191411 | 73 | 254 | 5.2 | 13.0 | 0.00 | 0.00 | 0.00 | 48 | 1016.3 |
| 20260510190630 | 74 | 247 | 3.5 | 9.6 | 0.00 | 0.00 | 0.00 | 50 | 1016.3 |
| 20260510190351 | 74 | 242 | 2.6 | 9.6 | 0.00 | 0.00 | 0.00 | 47 | 1016.3 |
| 20260510190110 | 74 | 269 | 4.3 | 9.6 | 0.00 | 0.00 | 0.00 | 48 | 1015.1 |
| 20260510185609 | 74 | 231 | 4.3 | 9.6 | 0.00 | 0.00 | 0.00 | 51 | 1016.4 |
| 20260510185100 | 74 | 252 | 4.3 | 11.3 | 0.00 | 0.00 | 0.00 | 51 | 1016.5 |
| 20260510184544 | 73 | 229 | 3.5 | 10.4 | 0.00 | 0.00 | 0.00 | 51 | 1016.3 |
| 20260510184526 | 73 | 215 | 5.2 | 10.4 | 0.00 | 0.00 | 0.00 | 51 | 1015.1 |
| 20260510184041 | 73 | 198 | 4.3 | 13.0 | 0.00 | 0.00 | 0.00 | 53 | 1016.2 |
| 20260510183533 | 73 | 258 | 5.2 | 13.0 | 0.00 | 0.00 | 0.00 | 50 | 1016.3 |
| 20260510183022 | 73 | 252 | 4.3 | 9.6 | 0.00 | 0.00 | 0.00 | 54 | 1016.4 |
| 20260510182512 | 72 | 234 | 4.3 | 10.4 | 0.00 | 0.00 | 0.00 | 52 | 1016.4 |
| 20260510182001 | 73 | 240 | 3.5 | 10.4 | 0.00 | 0.00 | 0.00 | 52 | 1016.5 |
| 20260510181531 | 73 | 235 | 4.3 | 9.6 | 0.00 | 0.00 | 0.00 | 53 | 1015.4 |
| 20260510181452 | 73 | 222 | 3.5 | 9.6 | 0.00 | 0.00 | 0.00 | 55 | 1016.5 |
| 20260510180937 | 73 | 241 | 3.5 | 12.2 | 0.00 | 0.00 | 0.00 | 53 | 1016.5 |
| 20260510180428 | 72 | 262 | 3.5 | 12.2 | 0.00 | 0.00 | 0.00 | 53 | 1016.4 |
| 20260510180108 | 72 | 192 | 2.6 | 12.2 | 0.00 | 0.00 | 0.00 | 55 | 1015.5 |
| 20260510175917 | 72 | 238 | 3.5 | 10.4 | 0.00 | 0.00 | 0.00 | 54 | 1016.5 |
| 20260510175407 | 72 | 244 | 2.6 | 11.3 | 0.00 | 0.00 | 0.00 | 55 | 1016.6 |
| 20260510174849 | 72 | 233 | 2.6 | 11.3 | 0.00 | 0.00 | 0.00 | 54 | 1016.7 |
| 20260510174521 | 72 | 241 | 2.6 | 11.3 | 0.00 | 0.00 | 0.00 | 54 | 1015.6 |
| 20260510174340 | 72 | 291 | 2.6 | 7.8 | 0.00 | 0.00 | 0.00 | 59 | 1016.8 |
| 20260510173826 | 71 | 214 | 3.5 | 7.8 | 0.00 | 0.00 | 0.00 | 54 | 1016.8 |
| 20260510173315 | 72 | 244 | 3.5 | 8.7 | 0.00 | 0.00 | 0.00 | 55 | 1016.9 |
| 20260510173308 | 72 | 240 | 3.5 | 11.3 | 0.00 | 0.00 | 0.00 | 54 | 1016.9 |
| 20260510173052 | 72 | 257 | 2.6 | 8.7 | 0.00 | 0.00 | 0.00 | 57 | 1015.8 |
| 20260510172253 | 71 | 154 | 3.5 | 11.3 | 0.00 | 0.00 | 0.00 | 56 | 1017.0 |
| 20260510171743 | 71 | 227 | 3.5 | 9.6 | 0.00 | 0.00 | 0.00 | 55 | 1017.0 |
| 20260510171519 | 71 | 242 | 2.6 | 9.6 | 0.00 | 0.00 | 0.00 | 56 | 1016.0 |
| 20260510171233 | 71 | 232 | 3.5 | 9.6 | 0.00 | 0.00 | 0.00 | 55 | 1017.1 |
| 20260510170718 | 71 | 256 | 3.5 | 9.6 | 0.00 | 0.00 | 0.00 | 55 | 1017.0 |
| 20260510170207 | 71 | 209 | 3.5 | 9.6 | 0.00 | 0.00 | 0.00 | 55 | 1017.0 |
| 20260510170046 | 70 | 269 | 2.6 | 9.6 | 0.00 | 0.00 | 0.00 | 54 | 1015.9 |
| 20260510165657 | 70 | 254 | 3.5 | 11.3 | 0.00 | 0.00 | 0.00 | 55 | 1017.0 |
| 20260510165149 | 70 | 236 | 4.3 | 12.2 | 0.00 | 0.00 | 0.00 | 54 | 1017.3 |
| 20260510164640 | 70 | 226 | 3.5 | 12.2 | 0.00 | 0.00 | 0.00 | 55 | 1017.3 |
| 20260510164520 | 71 | 230 | 6.1 | 12.2 | 0.00 | 0.00 | 0.00 | 54 | 1016.1 |
| 20260510164131 | 71 | 236 | 3.5 | 9.6 | 0.00 | 0.00 | 0.00 | 56 | 1017.1 |
| 20260510163900 | 71 | 236 | 3.5 | 9.6 | 0.00 | 0.00 | 0.00 | 54 | 1017.4 |
| 20260510163138 | 70 | 108 | 1.7 | 7.0 | 0.00 | 0.00 | 0.00 | 55 | 1016.3 |
| 20260510163117 | 70 | 108 | 2.6 | 7.8 | 0.00 | 0.00 | 0.00 | 55 | 1017.4 |
| 20260510162609 | 70 | 238 | 3.5 | 9.6 | 0.00 | 0.00 | 0.00 | 58 | 1017.3 |
| 20260510162059 | 69 | 263 | 3.5 | 10.4 | 0.00 | 0.00 | 0.00 | 60 | 1017.3 |
| 20260510161824 | 69 | 238 | 2.6 | 9.6 | 0.00 | 0.00 | 0.00 | 57 | 1017.4 |
| 20260510161535 | 69 | 265 | 1.7 | 9.6 | 0.00 | 0.00 | 0.00 | 57 | 1016.3 |
| 20260510161046 | 69 | 186 | 3.5 | 12.2 | 0.00 | 0.00 | 0.00 | 57 | 1017.3 |
| 20260510160533 | 69 | 225 | 4.3 | 12.2 | 0.00 | 0.00 | 0.00 | 57 | 1017.5 |
| 20260510160026 | 69 | 202 | 3.5 | 8.7 | 0.00 | 0.00 | 0.00 | 58 | 1017.5 |
| 20260510160004 | 68 | 211 | 4.3 | 7.8 | 0.00 | 0.00 | 0.00 | 58 | 1016.5 |
| 20260510155747 | 69 | 270 | 3.5 | 8.7 | 0.00 | 0.00 | 0.00 | 57 | 1017.5 |
| 20260510155011 | 68 | 245 | 4.3 | 7.8 | 0.00 | 0.00 | 0.00 | 60 | 1017.5 |
| 20260510154547 | 68 | 238 | 5.2 | 10.4 | 0.00 | 0.00 | 0.00 | 60 | 1016.3 |
| 20260510154507 | 68 | 232 | 3.5 | 10.4 | 0.00 | 0.00 | 0.00 | 60 | 1017.5 |
| 20260510154002 | 67 | 252 | 2.6 | 10.4 | 0.00 | 0.00 | 0.00 | 60 | 1017.4 |
| 20260510153723 | 67 | 325 | 3.5 | 7.0 | 0.00 | 0.00 | 0.00 | 62 | 1017.5 |
| 20260510153053 | 67 | 214 | 2.6 | 8.7 | 0.00 | 0.00 | 0.00 | 61 | 1016.5 |
| 20260510152947 | 67 | 224 | 3.5 | 8.7 | 0.00 | 0.00 | 0.00 | 61 | 1017.4 |
| 20260510152441 | 67 | 200 | 3.5 | 8.7 | 0.00 | 0.00 | 0.00 | 61 | 1017.4 |
| 20260510151937 | 66 | 190 | 3.5 | 9.6 | 0.00 | 0.00 | 0.00 | 61 | 1017.5 |
| 20260510151525 | 66 | 226 | 4.3 | 9.6 | 0.00 | 0.00 | 0.00 | 61 | 1016.6 |
| 20260510151432 | 66 | 235 | 3.5 | 9.6 | 0.00 | 0.00 | 0.00 | 64 | 1017.6 |
| 20260510150925 | 66 | 279 | 2.6 | 8.7 | 0.00 | 0.00 | 0.00 | 62 | 1017.6 |
| 20260510150418 | 65 | 250 | 1.7 | 7.0 | 0.00 | 0.00 | 0.00 | 62 | 1017.6 |
| 20260510150059 | 65 | 260 | 0.9 | 7.0 | 0.00 | 0.00 | 0.00 | 63 | 1016.7 |
| 20260510145914 | 65 | 293 | 1.7 | 7.0 | 0.00 | 0.00 | 0.00 | 62 | 1017.7 |
| 20260510145405 | 65 | 257 | 1.7 | 6.1 | 0.00 | 0.00 | 0.00 | 63 | 1017.6 |
| 20260510144900 | 65 | 275 | 1.7 | 5.2 | 0.00 | 0.00 | 0.00 | 64 | 1017.6 |
| 20260510144542 | 65 | 259 | 0.9 | 7.0 | 0.00 | 0.00 | 0.00 | 67 | 1016.7 |
| 20260510144349 | 64 | 254 | 1.7 | 7.0 | 0.00 | 0.00 | 0.00 | 65 | 1017.6 |
| 20260510143847 | 64 | 343 | 1.7 | 7.0 | 0.00 | 0.00 | 0.00 | 66 | 1017.6 |
| 20260510143334 | 64 | 252 | 1.7 | 6.1 | 0.00 | 0.00 | 0.00 | 66 | 1017.6 |
| 20260510143032 | 63 | 285 | 0.9 | 2.6 | 0.00 | 0.00 | 0.00 | 66 | 1016.7 |
| 20260510142829 | 63 | 286 | 0.9 | 3.5 | 0.00 | 0.00 | 0.00 | 67 | 1017.7 |
| 20260510142325 | 63 | 219 | 0.9 | 3.5 | 0.00 | 0.00 | 0.00 | 67 | 1017.6 |
| 20260510141825 | 62 | 283 | 1.7 | 8.7 | 0.00 | 0.00 | 0.00 | 68 | 1017.6 |
| 20260510141510 | 62 | 272 | 0.9 | 8.7 | 0.00 | 0.00 | 0.00 | 69 | 1016.6 |
| 20260510141317 | 62 | 243 | 1.7 | 8.7 | 0.00 | 0.00 | 0.00 | 71 | 1017.6 |
| 20260510140814 | 62 | 245 | 1.7 | 5.2 | 0.00 | 0.00 | 0.00 | 71 | 1017.6 |
| 20260510140301 | 61 | 261 | 2.6 | 7.0 | 0.00 | 0.00 | 0.00 | 72 | 1017.6 |
| 20260510140036 | 61 | 266 | 1.7 | 6.1 | 0.00 | 0.00 | 0.00 | 73 | 1016.7 |
| 20260510135753 | 61 | 227 | 1.7 | 7.0 | 0.00 | 0.00 | 0.00 | 73 | 1017.7 |
| 20260510135513 | 61 | 250 | 0.9 | 3.5 | 0.00 | 0.00 | 0.00 | 74 | 1017.7 |
| 20260510134735 | 60 | 288 | 0.9 | 3.5 | 0.00 | 0.00 | 0.00 | 76 | 1017.7 |
| 20260510134507 | 60 | 295 | 0.9 | 3.5 | 0.00 | 0.00 | 0.00 | 76 | 1016.8 |
| 20260510134214 | 60 | 243 | 0.9 | 3.5 | 0.00 | 0.00 | 0.00 | 76 | 1017.7 |
| 20260510133706 | 59 | 187 | 1.7 | 6.1 | 0.00 | 0.00 | 0.00 | 77 | 1017.8 |
| 20260510133421 | 58 | 306 | 1.7 | 6.1 | 0.00 | 0.00 | 0.00 | 79 | 1017.7 |
| 20260510133027 | 58 | 5 | 0.0 | 6.1 | 0.00 | 0.00 | 0.00 | 79 | 1016.8 |
| 20260510132641 | 58 | 201 | 2.6 | 6.1 | 0.00 | 0.00 | 0.00 | 81 | 1017.7 |
| 20260510132132 | 57 | 163 | 1.7 | 6.1 | 0.00 | 0.00 | 0.00 | 81 | 1017.7 |
| 20260510131622 | 57 | 198 | 0.9 | 3.5 | 0.00 | 0.00 | 0.00 | 83 | 1017.8 |
| 20260510131605 | 57 | 198 | 0.9 | 3.5 | 0.00 | 0.00 | 0.00 | 83 | 1017.0 |
| 20260510131111 | 56 | 234 | 0.9 | 3.5 | 0.00 | 0.00 | 0.00 | 85 | 1017.8 |
| 20260510130601 | 56 | 172 | 0.9 | 3.5 | 0.00 | 0.00 | 0.00 | 87 | 1017.7 |
| 20260510130058 | 55 | 211 | 0.9 | 3.5 | 0.00 | 0.00 | 0.00 | 87 | 1017.7 |
| 20260510130038 | 55 | 226 | 1.7 | 3.5 | 0.00 | 0.00 | 0.00 | 87 | 1016.9 |
| 20260510125553 | 55 | 190 | 0.0 | 3.5 | 0.00 | 0.00 | 0.00 | 88 | 1017.7 |
| 20260510125313 | 54 | 185 | 0.0 | 0.0 | 0.00 | 0.00 | 0.00 | 89 | 1017.7 |
| 20260510124533 | 54 | 185 | 0.0 | 0.0 | 0.00 | 0.00 | 0.00 | 90 | 1017.6 |
| 20260510124519 | 54 | 185 | 0.0 | 0.0 | 0.00 | 0.00 | 0.00 | 90 | 1016.8 |
| 20260510124023 | 53 | 185 | 0.0 | 0.0 | 0.00 | 0.00 | 0.00 | 89 | 1017.6 |
| 20260510123513 | 51 | 185 | 0.0 | 0.0 | 0.00 | 0.00 | 0.00 | 89 | 1017.6 |
| 20260510123232 | 51 | 185 | 0.0 | 0.0 | 0.00 | 0.00 | 0.00 | 89 | 1017.7 |
| 20260510123038 | 51 | 185 | 0.0 | 0.0 | 0.00 | 0.00 | 0.00 | 89 | 1016.9 |
| 20260510122720 | 51 | 185 | 0.0 | 0.0 | 0.00 | 0.00 | 0.00 | 90 | 1017.6 |
| 20260510121939 | 51 | 185 | 0.0 | 0.0 | 0.00 | 0.00 | 0.00 | 90 | 1017.6 |
| 20260510121515 | 50 | 185 | 0.0 | 0.0 | 0.00 | 0.00 | 0.00 | 90 | 1016.8 |
| 20260510121430 | 50 | 185 | 0.0 | 0.0 | 0.00 | 0.00 | 0.00 | 90 | 1017.5 |
| 20260510120918 | 49 | 185 | 0.0 | 0.0 | 0.00 | 0.00 | 0.00 | 90 | 1017.4 |
| 20260510120409 | 48 | 185 | 0.0 | 0.0 | 0.00 | 0.00 | 0.00 | 90 | 1017.3 |
| 20260510120037 | 47 | 185 | 0.0 | 0.0 | 0.00 | 0.00 | 0.00 | 90 | 1016.6 |
| 20260510115856 | 46 | 185 | 0.0 | 0.0 | 0.00 | 0.00 | 0.00 | 90 | 1017.1 |
| 20260510115345 | 45 | 185 | 0.0 | 0.0 | 0.00 | 0.00 | 0.00 | 89 | 1017.0 |
| 20260510114834 | 44 | 185 | 0.0 | 0.0 | 0.00 | 0.00 | 0.00 | 89 | 1016.9 |
| 20260510114508 | 43 | 185 | 0.0 | 0.0 | 0.00 | 0.00 | 0.00 | 88 | 1016.4 |
| 20260510114324 | 43 | 185 | 0.0 | 0.0 | 0.00 | 0.00 | 0.00 | 88 | 1017.0 |
| 20260510113815 | 42 | 185 | 0.0 | 0.0 | 0.00 | 0.00 | 0.00 | 88 | 1016.9 |
| 20260510113304 | 42 | 185 | 0.0 | 0.0 | 0.00 | 0.00 | 0.00 | 88 | 1016.9 |
| 20260510113035 | 41 | 185 | 0.0 | 0.0 | 0.00 | 0.00 | 0.00 | 88 | 1016.3 |
| 20260510112747 | 41 | 185 | 0.0 | 0.0 | 0.00 | 0.00 | 0.00 | 88 | 1016.8 |
| 20260510112236 | 41 | 185 | 0.0 | 0.0 | 0.00 | 0.00 | 0.00 | 88 | 1016.8 |
| 20260510111959 | 41 | 185 | 0.0 | 0.0 | 0.00 | 0.00 | 0.00 | 87 | 1016.7 |
| 20260510111602 | 41 | 185 | 0.0 | 0.0 | 0.00 | 0.00 | 0.00 | 88 | 1016.2 |
| 20260510111216 | 40 | 185 | 0.0 | 0.0 | 0.00 | 0.00 | 0.00 | 88 | 1016.6 |
| 20260510110707 | 40 | 185 | 0.0 | 0.0 | 0.00 | 0.00 | 0.00 | 87 | 1016.5 |
| 20260510110657 | 40 | 185 | 0.0 | 0.0 | 0.00 | 0.00 | 0.00 | 87 | 1016.4 |
| 20260510110032 | 40 | 185 | 0.0 | 0.0 | 0.00 | 0.00 | 0.00 | 87 | 1015.7 |
| 20260510105642 | 40 | 185 | 0.0 | 0.0 | 0.00 | 0.00 | 0.00 | 87 | 1016.3 |
| 20260510105132 | 40 | 185 | 0.0 | 0.0 | 0.00 | 0.00 | 0.00 | 87 | 1016.2 |
| 20260510104622 | 40 | 185 | 0.0 | 0.0 | 0.00 | 0.00 | 0.00 | 87 | 1016.1 |
| 20260510104601 | 40 | 185 | 0.0 | 0.0 | 0.00 | 0.00 | 0.00 | 87 | 1015.5 |
| 20260510104113 | 40 | 185 | 0.0 | 0.0 | 0.00 | 0.00 | 0.00 | 87 | 1016.1 |
| 20260510103602 | 40 | 185 | 0.0 | 0.0 | 0.00 | 0.00 | 0.00 | 87 | 1016.0 |
| 20260510103324 | 40 | 185 | 0.0 | 0.0 | 0.00 | 0.00 | 0.00 | 87 | 1015.8 |
| 20260510103030 | 40 | 185 | 0.0 | 0.0 | 0.00 | 0.00 | 0.00 | 87 | 1015.1 |
| 20260510102539 | 40 | 185 | 0.0 | 0.0 | 0.00 | 0.00 | 0.00 | 87 | 1015.7 |
| 20260510102028 | 40 | 185 | 0.0 | 0.0 | 0.00 | 0.00 | 0.00 | 87 | 1015.7 |
| 20260510101557 | 40 | 185 | 0.0 | 0.0 | 0.00 | 0.00 | 0.00 | 87 | 1015.0 |
| 20260510101519 | 40 | 185 | 0.0 | 0.0 | 0.00 | 0.00 | 0.00 | 87 | 1015.7 |
| 20260510101008 | 40 | 185 | 0.0 | 0.0 | 0.00 | 0.00 | 0.00 | 87 | 1015.5 |
| 20260510100457 | 40 | 185 | 0.0 | 0.0 | 0.00 | 0.00 | 0.00 | 87 | 1015.5 |
| 20260510100036 | 40 | 185 | 0.0 | 0.0 | 0.00 | 0.00 | 0.00 | 87 | 1014.9 |
| 20260510095946 | 40 | 185 | 0.0 | 0.0 | 0.00 | 0.00 | 0.00 | 87 | 1015.4 |
| 20260510095432 | 40 | 185 | 0.0 | 0.0 | 0.00 | 0.00 | 0.00 | 87 | 1015.4 |
| 20260510094922 | 40 | 185 | 0.0 | 0.0 | 0.00 | 0.00 | 0.00 | 87 | 1015.3 |
| 20260510094602 | 40 | 185 | 0.0 | 0.0 | 0.00 | 0.00 | 0.00 | 87 | 1014.7 |
| 20260510094412 | 40 | 185 | 0.0 | 0.0 | 0.00 | 0.00 | 0.00 | 87 | 1015.3 |
| 20260510094134 | 40 | 185 | 0.0 | 0.0 | 0.00 | 0.00 | 0.00 | 86 | 1015.3 |
| 20260510093353 | 41 | 185 | 0.0 | 0.0 | 0.00 | 0.00 | 0.00 | 86 | 1015.2 |
| 20260510093024 | 41 | 185 | 0.0 | 0.0 | 0.00 | 0.00 | 0.00 | 86 | 1014.7 |
| 20260510092843 | 41 | 185 | 0.0 | 0.0 | 0.00 | 0.00 | 0.00 | 86 | 1015.2 |
| 20260510092329 | 41 | 185 | 0.0 | 0.0 | 0.00 | 0.00 | 0.00 | 86 | 1015.2 |
| 20260510092050 | 41 | 185 | 0.0 | 0.0 | 0.00 | 0.00 | 0.00 | 86 | 1015.2 |
| 20260510091552 | 41 | 185 | 0.0 | 0.0 | 0.00 | 0.00 | 0.00 | 87 | 1014.6 |
| 20260510091541 | 41 | 185 | 0.0 | 0.0 | 0.00 | 0.00 | 0.00 | 87 | 1015.1 |
| 20260510090759 | 41 | 185 | 0.0 | 0.0 | 0.00 | 0.00 | 0.00 | 86 | 1015.1 |
| 20260510090519 | 41 | 185 | 0.0 | 0.0 | 0.00 | 0.00 | 0.00 | 86 | 1015.1 |
| 20260510090024 | 41 | 185 | 0.0 | 0.0 | 0.00 | 0.00 | 0.00 | 86 | 1014.4 |
| 20260510090009 | 42 | 185 | 0.0 | 0.0 | 0.00 | 0.00 | 0.00 | 86 | 1015.0 |
| 20260510085223 | 42 | 185 | 0.0 | 0.0 | 0.00 | 0.00 | 0.00 | 86 | 1015.0 |
| 20260510084710 | 42 | 185 | 0.0 | 0.0 | 0.00 | 0.00 | 0.00 | 87 | 1014.9 |
| 20260510084607 | 42 | 185 | 0.0 | 0.0 | 0.00 | 0.00 | 0.00 | 87 | 1014.3 |
| 20260510084201 | 42 | 185 | 0.0 | 0.0 | 0.00 | 0.00 | 0.00 | 87 | 1014.9 |
| 20260510083651 | 42 | 185 | 0.0 | 0.0 | 0.00 | 0.00 | 0.00 | 86 | 1014.8 |
| 20260510083143 | 42 | 185 | 0.0 | 0.0 | 0.00 | 0.00 | 0.00 | 86 | 1014.7 |
| 20260510083022 | 42 | 185 | 0.0 | 0.0 | 0.00 | 0.00 | 0.00 | 86 | 1014.2 |
| 20260510082906 | 43 | 185 | 0.0 | 0.0 | 0.00 | 0.00 | 0.00 | 87 | 1014.7 |
| 20260510082120 | 43 | 185 | 0.0 | 0.9 | 0.00 | 0.00 | 0.00 | 87 | 1014.8 |
| 20260510081608 | 43 | 185 | 0.0 | 0.9 | 0.00 | 0.00 | 0.00 | 86 | 1014.8 |
| 20260510081553 | 42 | 185 | 0.0 | 0.9 | 0.00 | 0.00 | 0.00 | 86 | 1014.2 |
| 20260510081059 | 42 | 185 | 0.0 | 0.9 | 0.00 | 0.00 | 0.00 | 86 | 1014.7 |
| 20260510081053 | 43 | 185 | 0.0 | 0.0 | 0.00 | 0.00 | 0.00 | 86 | 1014.7 |
| 20260510080044 | 43 | 185 | 0.0 | 0.0 | 0.00 | 0.00 | 0.00 | 86 | 1014.6 |
| 20260510080028 | 43 | 185 | 0.0 | 0.0 | 0.00 | 0.00 | 0.00 | 86 | 1014.0 |
| 20260510075813 | 43 | 185 | 0.0 | 0.0 | 0.00 | 0.00 | 0.00 | 86 | 1014.5 |
| 20260510075032 | 43 | 185 | 0.0 | 0.0 | 0.00 | 0.00 | 0.00 | 86 | 1014.4 |
| 20260510074529 | 43 | 185 | 0.0 | 0.9 | 0.00 | 0.00 | 0.00 | 86 | 1014.4 |
| 20260510074511 | 43 | 185 | 0.0 | 0.9 | 0.00 | 0.00 | 0.00 | 86 | 1013.7 |
| 20260510074028 | 44 | 185 | 0.0 | 0.9 | 0.00 | 0.00 | 0.00 | 86 | 1014.4 |
| 20260510073522 | 44 | 185 | 0.0 | 0.0 | 0.00 | 0.00 | 0.00 | 86 | 1014.4 |
| 20260510073103 | 44 | 185 | 0.0 | 1.7 | 0.00 | 0.00 | 0.00 | 86 | 1013.8 |
| 20260510073014 | 44 | 185 | 0.9 | 1.7 | 0.00 | 0.00 | 0.00 | 86 | 1014.4 |
| 20260510072509 | 44 | 185 | 0.9 | 1.7 | 0.00 | 0.00 | 0.00 | 86 | 1014.4 |
| 20260510071958 | 44 | 188 | 0.0 | 1.7 | 0.00 | 0.00 | 0.00 | 86 | 1014.4 |
| 20260510071539 | 44 | 188 | 0.0 | 0.0 | 0.00 | 0.00 | 0.00 | 86 | 1013.7 |
| 20260510071452 | 44 | 188 | 0.0 | 0.0 | 0.00 | 0.00 | 0.00 | 86 | 1014.4 |
| 20260510070947 | 44 | 188 | 0.0 | 0.0 | 0.00 | 0.00 | 0.00 | 86 | 1014.4 |
| 20260510070444 | 44 | 188 | 0.0 | 0.0 | 0.00 | 0.00 | 0.00 | 86 | 1014.4 |
| 20260510070029 | 44 | 188 | 0.0 | 0.0 | 0.00 | 0.00 | 0.00 | 86 | 1013.7 |
| 20260510065940 | 44 | 188 | 0.0 | 0.0 | 0.00 | 0.00 | 0.00 | 86 | 1014.4 |
| 20260510065437 | 44 | 188 | 0.0 | 0.0 | 0.00 | 0.00 | 0.00 | 86 | 1014.4 |
| 20260510064931 | 44 | 188 | 0.0 | 0.0 | 0.00 | 0.00 | 0.00 | 86 | 1014.3 |
| 20260510064510 | 44 | 188 | 0.0 | 0.0 | 0.00 | 0.00 | 0.00 | 86 | 1013.6 |
| 20260510064423 | 45 | 188 | 0.0 | 0.0 | 0.00 | 0.00 | 0.00 | 86 | 1014.3 |
| 20260510064148 | 45 | 188 | 0.0 | 0.0 | 0.00 | 0.00 | 0.00 | 86 | 1014.2 |
| 20260510063415 | 45 | 188 | 0.0 | 0.9 | 0.00 | 0.00 | 0.00 | 86 | 1014.3 |
| 20260510063059 | 45 | 188 | 0.0 | 0.9 | 0.00 | 0.00 | 0.00 | 86 | 1013.5 |
| 20260510062909 | 45 | 188 | 0.0 | 0.9 | 0.00 | 0.00 | 0.00 | 86 | 1014.3 |
| 20260510062402 | 45 | 188 | 0.0 | 0.9 | 0.00 | 0.00 | 0.00 | 86 | 1014.2 |
| 20260510061853 | 45 | 188 | 0.0 | 0.0 | 0.00 | 0.00 | 0.00 | 86 | 1014.3 |
| 20260510061616 | 45 | 188 | 0.0 | 0.9 | 0.00 | 0.00 | 0.00 | 85 | 1014.3 |
| 20260510061524 | 45 | 188 | 0.0 | 0.9 | 0.00 | 0.00 | 0.00 | 85 | 1013.6 |
| 20260510060834 | 45 | 188 | 0.0 | 0.9 | 0.00 | 0.00 | 0.00 | 85 | 1014.3 |
| 20260510060327 | 45 | 188 | 0.0 | 0.0 | 0.00 | 0.00 | 0.00 | 85 | 1014.3 |
| 20260510055815 | 46 | 188 | 0.0 | 0.0 | 0.00 | 0.00 | 0.00 | 85 | 1014.3 |
| 20260510055307 | 46 | 188 | 0.0 | 0.9 | 0.00 | 0.00 | 0.00 | 85 | 1014.4 |
| 20260510054755 | 46 | 188 | 0.0 | 0.9 | 0.00 | 0.00 | 0.00 | 85 | 1014.4 |
| 20260510054529 | 46 | 188 | 0.0 | 0.0 | 0.00 | 0.00 | 0.00 | 85 | 1013.6 |
| 20260510054246 | 46 | 188 | 0.0 | 0.0 | 0.00 | 0.00 | 0.00 | 85 | 1014.3 |
| 20260510053735 | 46 | 188 | 0.0 | 0.0 | 0.00 | 0.00 | 0.00 | 85 | 1014.3 |
| 20260510053227 | 46 | 188 | 0.0 | 0.0 | 0.00 | 0.00 | 0.00 | 85 | 1014.3 |
| 20260510053006 | 46 | 188 | 0.0 | 0.0 | 0.00 | 0.00 | 0.00 | 85 | 1013.5 |
| 20260510052723 | 46 | 188 | 0.0 | 0.0 | 0.00 | 0.00 | 0.00 | 85 | 1014.2 |
| 20260510052214 | 46 | 188 | 0.0 | 0.0 | 0.00 | 0.00 | 0.00 | 85 | 1014.0 |
| 20260510051659 | 46 | 188 | 0.0 | 0.0 | 0.00 | 0.00 | 0.00 | 85 | 1014.0 |
| 20260510051535 | 46 | 188 | 0.0 | 0.0 | 0.00 | 0.00 | 0.00 | 85 | 1013.4 |
| 20260510051149 | 46 | 188 | 0.0 | 0.0 | 0.00 | 0.00 | 0.00 | 85 | 1014.0 |
| 20260510050911 | 47 | 188 | 0.0 | 0.9 | 0.00 | 0.00 | 0.00 | 85 | 1014.0 |
| 20260510050410 | 47 | 188 | 0.0 | 0.9 | 0.00 | 0.00 | 0.00 | 85 | 1014.0 |
| 20260510050015 | 47 | 188 | 0.0 | 0.9 | 0.00 | 0.00 | 0.00 | 85 | 1013.3 |
| 20260510045630 | 47 | 188 | 0.0 | 0.0 | 0.00 | 0.00 | 0.00 | 85 | 1013.9 |
| 20260510045120 | 47 | 188 | 0.0 | 1.7 | 0.00 | 0.00 | 0.00 | 84 | 1014.0 |
| 20260510044838 | 47 | 188 | 0.0 | 1.7 | 0.00 | 0.00 | 0.00 | 84 | 1014.0 |
| 20260510044546 | 47 | 188 | 0.0 | 1.7 | 0.00 | 0.00 | 0.00 | 84 | 1013.3 |
| 20260510044055 | 47 | 188 | 0.0 | 1.7 | 0.00 | 0.00 | 0.00 | 84 | 1013.9 |
| 20260510043545 | 48 | 188 | 0.9 | 1.7 | 0.00 | 0.00 | 0.00 | 85 | 1013.9 |
| 20260510043036 | 48 | 188 | 0.0 | 1.7 | 0.00 | 0.00 | 0.00 | 84 | 1014.0 |
| 20260510043013 | 48 | 188 | 0.0 | 1.7 | 0.00 | 0.00 | 0.00 | 84 | 1013.3 |
| 20260510042525 | 48 | 188 | 0.0 | 0.0 | 0.00 | 0.00 | 0.00 | 84 | 1014.0 |
| 20260510042015 | 48 | 188 | 0.0 | 0.0 | 0.00 | 0.00 | 0.00 | 84 | 1013.9 |
| 20260510041540 | 48 | 188 | 0.0 | 0.0 | 0.00 | 0.00 | 0.00 | 84 | 1013.2 |
| 20260510041502 | 48 | 188 | 0.0 | 0.0 | 0.00 | 0.00 | 0.00 | 84 | 1013.9 |
| 20260510040945 | 49 | 188 | 0.0 | 0.0 | 0.00 | 0.00 | 0.00 | 84 | 1013.8 |
| 20260510040435 | 49 | 188 | 0.0 | 0.9 | 0.00 | 0.00 | 0.00 | 84 | 1013.8 |
| 20260510040009 | 49 | 188 | 0.0 | 0.9 | 0.00 | 0.00 | 0.00 | 83 | 1013.1 |
| 20260510035925 | 49 | 188 | 0.0 | 0.9 | 0.00 | 0.00 | 0.00 | 83 | 1013.8 |
| 20260510035414 | 49 | 188 | 0.0 | 0.0 | 0.00 | 0.00 | 0.00 | 83 | 1013.9 |
| 20260510034907 | 49 | 188 | 0.0 | 0.0 | 0.00 | 0.00 | 0.00 | 83 | 1013.9 |
| 20260510034852 | 49 | 188 | 0.0 | 0.0 | 0.00 | 0.00 | 0.00 | 83 | 1014.0 |
| 20260510034540 | 49 | 188 | 0.0 | 0.0 | 0.00 | 0.00 | 0.00 | 83 | 1013.3 |
| 20260510033843 | 50 | 188 | 0.0 | 0.0 | 0.00 | 0.00 | 0.00 | 83 | 1014.0 |
| 20260510033331 | 50 | 188 | 0.0 | 0.9 | 0.00 | 0.00 | 0.00 | 83 | 1013.8 |
| 20260510033002 | 50 | 188 | 0.0 | 0.9 | 0.00 | 0.00 | 0.00 | 83 | 1013.1 |
| 20260510032822 | 50 | 188 | 0.0 | 0.0 | 0.00 | 0.00 | 0.00 | 83 | 1013.8 |
| 20260510032310 | 50 | 188 | 0.0 | 0.9 | 0.00 | 0.00 | 0.00 | 82 | 1013.8 |
| 20260510031801 | 51 | 188 | 0.0 | 0.9 | 0.00 | 0.00 | 0.00 | 82 | 1013.7 |
| 20260510031533 | 51 | 188 | 0.0 | 0.9 | 0.00 | 0.00 | 0.00 | 82 | 1012.8 |
| 20260510031247 | 51 | 188 | 0.0 | 0.9 | 0.00 | 0.00 | 0.00 | 82 | 1013.7 |
| 20260510030738 | 51 | 188 | 0.0 | 0.9 | 0.00 | 0.00 | 0.00 | 82 | 1013.6 |
| 20260510030227 | 51 | 188 | 0.0 | 0.9 | 0.00 | 0.00 | 0.00 | 82 | 1013.5 |
| 20260510025717 | 51 | 188 | 0.0 | 0.0 | 0.00 | 0.00 | 0.00 | 81 | 1013.4 |
| 20260510025207 | 51 | 188 | 0.0 | 0.9 | 0.00 | 0.00 | 0.00 | 81 | 1013.4 |
| 20260510024657 | 52 | 188 | 0.0 | 0.0 | 0.00 | 0.00 | 0.00 | 80 | 1013.4 |
| 20260510024531 | 52 | 188 | 0.0 | 0.9 | 0.00 | 0.00 | 0.00 | 80 | 1012.7 |
| 20260510024142 | 52 | 188 | 0.0 | 0.9 | 0.00 | 0.00 | 0.00 | 80 | 1013.4 |
| 20260510023633 | 53 | 188 | 0.0 | 0.9 | 0.00 | 0.00 | 0.00 | 80 | 1013.2 |
| 20260510023123 | 53 | 188 | 0.9 | 1.7 | 0.00 | 0.00 | 0.00 | 80 | 1013.3 |
| 20260510023100 | 53 | 188 | 0.0 | 1.7 | 0.00 | 0.00 | 0.00 | 80 | 1012.6 |
| 20260510022613 | 53 | 188 | 0.9 | 1.7 | 0.00 | 0.00 | 0.00 | 79 | 1013.3 |
| 20260510022102 | 53 | 188 | 0.0 | 0.9 | 0.00 | 0.00 | 0.00 | 79 | 1013.3 |
| 20260510021551 | 53 | 188 | 0.0 | 0.0 | 0.00 | 0.00 | 0.00 | 78 | 1013.3 |
| 20260510021540 | 54 | 188 | 0.0 | 0.0 | 0.00 | 0.00 | 0.00 | 77 | 1013.3 |
| 20260510021532 | 53 | 188 | 0.0 | 0.0 | 0.00 | 0.00 | 0.00 | 78 | 1012.5 |
| 20260510020525 | 54 | 188 | 0.0 | 0.0 | 0.00 | 0.00 | 0.00 | 77 | 1013.2 |
| 20260510020054 | 54 | 188 | 0.0 | 0.0 | 0.00 | 0.00 | 0.00 | 76 | 1012.3 |
| 20260510020015 | 55 | 188 | 0.0 | 0.0 | 0.00 | 0.00 | 0.00 | 76 | 1013.0 |
| 20260510015457 | 55 | 188 | 0.0 | 0.0 | 0.00 | 0.00 | 0.00 | 76 | 1013.1 |
| 20260510015211 | 55 | 188 | 0.0 | 0.9 | 0.00 | 0.00 | 0.00 | 76 | 1013.0 |
| 20260510014508 | 55 | 188 | 0.0 | 1.7 | 0.00 | 0.00 | 0.00 | 75 | 1012.1 |
| 20260510014428 | 56 | 188 | 0.9 | 1.7 | 0.00 | 0.00 | 0.00 | 75 | 1012.9 |
| 20260510013915 | 56 | 188 | 0.0 | 1.7 | 0.00 | 0.00 | 0.00 | 74 | 1012.8 |
| 20260510013404 | 56 | 188 | 0.0 | 0.9 | 0.00 | 0.00 | 0.00 | 73 | 1012.8 |
| 20260510013036 | 57 | 188 | 0.0 | 0.9 | 0.00 | 0.00 | 0.00 | 73 | 1011.9 |
| 20260510012854 | 57 | 188 | 0.0 | 0.9 | 0.00 | 0.00 | 0.00 | 73 | 1012.8 |
| 20260510012344 | 57 | 188 | 0.0 | 0.9 | 0.00 | 0.00 | 0.00 | 72 | 1012.7 |
| 20260510011834 | 58 | 188 | 0.0 | 0.9 | 0.00 | 0.00 | 0.00 | 71 | 1012.6 |
| 20260510011509 | 58 | 188 | 0.0 | 0.9 | 0.00 | 0.00 | 0.00 | 71 | 1011.5 |
| 20260510011324 | 58 | 188 | 0.0 | 0.0 | 0.00 | 0.00 | 0.00 | 70 | 1012.4 |
| 20260510010802 | 58 | 188 | 0.0 | 0.0 | 0.00 | 0.00 | 0.00 | 70 | 1012.3 |
| 20260510010245 | 59 | 188 | 0.0 | 0.9 | 0.00 | 0.00 | 0.00 | 69 | 1012.2 |
| 20260510010019 | 59 | 188 | 0.0 | 0.9 | 0.00 | 0.00 | 0.00 | 69 | 1011.3 |
| 20260510005736 | 59 | 188 | 0.0 | 0.9 | 0.00 | 0.00 | 0.00 | 69 | 1012.1 |
| 20260510005225 | 60 | 188 | 0.0 | 1.7 | 0.00 | 0.00 | 0.00 | 67 | 1011.9 |
| 20260510004715 | 61 | 188 | 0.0 | 1.7 | 0.00 | 0.00 | 0.00 | 66 | 1011.8 |
| 20260510004551 | 61 | 188 | 0.0 | 1.7 | 0.00 | 0.00 | 0.00 | 66 | 1010.9 |
| 20260510004204 | 62 | 188 | 0.9 | 1.7 | 0.00 | 0.00 | 0.00 | 65 | 1011.7 |
| 20260510003651 | 63 | 188 | 0.9 | 1.7 | 0.00 | 0.00 | 0.00 | 62 | 1011.8 |
| 20260510003141 | 63 | 188 | 0.0 | 0.9 | 0.00 | 0.00 | 0.00 | 60 | 1011.6 |
| 20260510003016 | 63 | 188 | 0.0 | 0.9 | 0.00 | 0.00 | 0.00 | 59 | 1010.8 |
| 20260510002630 | 64 | 188 | 0.0 | 0.0 | 0.00 | 0.00 | 0.00 | 59 | 1011.6 |
| 20260510002120 | 64 | 188 | 0.0 | 1.7 | 0.00 | 0.00 | 0.00 | 58 | 1011.5 |
| 20260510001842 | 65 | 188 | 0.9 | 3.5 | 0.00 | 0.00 | 0.00 | 57 | 1011.5 |
| 20260510001549 | 65 | 188 | 0.0 | 2.6 | 0.00 | 0.00 | 0.00 | 57 | 1010.6 |
| 20260510001100 | 65 | 229 | 0.9 | 3.5 | 0.00 | 0.00 | 0.00 | 56 | 1011.5 |
| 20260510000544 | 65 | 259 | 1.7 | 3.5 | 0.00 | 0.00 | 0.00 | 55 | 1011.3 |
| 20260510000035 | 66 | 229 | 1.7 | 5.2 | 0.00 | 0.00 | 0.00 | 55 | 1011.4 |
| 20260510000016 | 66 | 229 | 0.9 | 4.3 | 0.00 | 0.00 | 0.00 | 55 | 1010.6 |
| 20260509235525 | 66 | 234 | 1.7 | 6.1 | 0.00 | 0.00 | 0.00 | 54 | 1011.4 |
| 20260509235251 | 66 | 247 | 1.7 | 6.1 | 0.00 | 0.00 | 0.00 | 54 | 1011.5 |
| 20260509234552 | 66 | 209 | 0.9 | 6.1 | 0.00 | 0.00 | 0.00 | 54 | 1010.7 |
| 20260509234500 | 67 | 267 | 2.6 | 6.1 | 0.00 | 0.00 | 0.00 | 54 | 1011.5 |
| 20260509233955 | 67 | 254 | 3.5 | 7.8 | 0.00 | 0.00 | 0.00 | 53 | 1011.4 |
| 20260509233445 | 67 | 236 | 3.5 | 7.8 | 0.00 | 0.00 | 0.00 | 53 | 1011.5 |
| 20260509233207 | 67 | 232 | 2.6 | 7.8 | 0.00 | 0.00 | 0.00 | 52 | 1011.3 |
| 20260509233024 | 67 | 197 | 3.5 | 7.0 | 0.00 | 0.00 | 0.00 | 52 | 1010.5 |
| 20260509232433 | 67 | 237 | 2.6 | 9.6 | 0.00 | 0.00 | 0.00 | 52 | 1011.3 |
| 20260509231926 | 67 | 200 | 2.6 | 9.6 | 0.00 | 0.00 | 0.00 | 52 | 1011.3 |
| 20260509231653 | 67 | 207 | 3.5 | 8.7 | 0.00 | 0.00 | 0.00 | 53 | 1011.2 |
| 20260509231514 | 67 | 279 | 3.5 | 9.6 | 0.00 | 0.00 | 0.00 | 53 | 1010.4 |
| 20260509230917 | 67 | 207 | 4.3 | 8.7 | 0.00 | 0.00 | 0.00 | 53 | 1011.1 |
| 20260509230406 | 67 | 180 | 5.2 | 8.7 | 0.00 | 0.00 | 0.00 | 52 | 1011.0 |
| 20260509230039 | 67 | 175 | 4.3 | 8.7 | 0.00 | 0.00 | 0.00 | 53 | 1010.1 |
| 20260509225858 | 67 | 235 | 4.3 | 9.6 | 0.00 | 0.00 | 0.00 | 52 | 1011.0 |